Flag for Austria Weather past 2 weeks in Klagenfurt, Carinthia, Austria

28 °F


Feels Like: 28 °F
Forecast: 27 / 46 °F
Wind: 1 mph from North

Location: Klagenfurt-Flughafen

Current Time: Nov 30, 2015 at 1:02:27 AM

Latest Report: Nov 29, 2015 at 11:50 PM

Visibility: 5 mi

Pressure: 30.18 "Hg

Humidity: 100%

Dew point: 28 °F

Location of KlagenfurtLocation

Historic Weather in Klagenfurt — Graph


Klagenfurt temperature yesterday

Maximum temperature yesterday: 37 °F (at 11:20 AM)
Minimum temperature yesterday: 27 °F (at 12:20 AM)
Average temperature yesterday: 31 °F

Past Weeks' High & Low Weather Summary

High59 °F (Nov 18, 1:20 PM)100% (Nov 14, 11:50 PM)30.30 "Hg (Nov 14, 11:50 PM)
Low27 °F (Nov 19, 7:50 AM)59% (Nov 18, 1:20 PM)29.36 "Hg (Nov 21, 12:20 AM)
Average36 °F90%29.95 "Hg
* Reported Nov 14 11:50 PM — Nov 29 11:20 PM, Klagenfurt, Weather by CustomWeather, © 2015

Note: Actual official high and low records may vary slightly from our data, if they occured in-between our weather recording intervals... More about our weather records


Klagenfurt weather history for previous 24 hours

Time TempWeatherWind HumidityBarometerVisibility
11:20 PM
Sun, Nov 29
28 °FPassing clouds.3 mph100%30.18 "Hg4 mi
10:50 PM28 °FPassing clouds.2 mph100%30.15 "Hg4 mi
10:20 PM30 °FPassing clouds.5 mph93%30.15 "Hg6 mi
9:50 PM30 °FPassing clouds.2 mph93%30.15 "Hg6 mi
9:20 PM30 °FPartly cloudy.2 mph100%30.15 "Hg6 mi
8:50 PM32 °FPassing clouds.2 mph93%30.15 "HgN/A
8:20 PM32 °FPassing clouds.3 mph93%30.15 "HgN/A
7:50 PM32 °FPassing clouds.2 mph93%30.18 "HgN/A
7:20 PM32 °FPassing clouds.2 mph93%30.18 "HgN/A
6:50 PM32 °FPassing clouds.2 mph93%30.15 "HgN/A
6:20 PM32 °FPassing clouds.1 mph93%30.15 "HgN/A
5:50 PM32 °FPassing clouds.1 mph93%30.12 "HgN/A
5:20 PM32 °FPassing clouds.1 mph93%30.12 "HgN/A
4:50 PM32 °FPassing clouds.2 mph93%30.15 "HgN/A
4:20 PM34 °FPartly cloudy.3 mph87%30.12 "HgN/A
3:50 PM34 °FBroken clouds.2 mph87%30.12 "HgN/A
3:20 PM37 °FBroken clouds.3 mph81%30.12 "HgN/A
2:50 PM36 °FBroken clouds.2 mph87%30.12 "HgN/A
2:20 PM36 °FBroken clouds.2 mph87%30.12 "HgN/A
1:50 PM36 °FBroken clouds.2 mph87%30.12 "HgN/A
1:20 PM36 °FBroken clouds.2 mph87%30.12 "HgN/A
12:50 PM37 °FBroken clouds.2 mph81%30.15 "HgN/A
12:20 PM36 °FBroken clouds.3 mph87%30.15 "HgN/A
11:50 AM37 °FBroken clouds.2 mph81%30.18 "HgN/A
11:20 AM37 °FPartly sunny.2 mph75%30.18 "HgN/A
10:50 AM36 °FScattered clouds.2 mph81%30.18 "HgN/A
10:20 AM34 °FScattered clouds.5 mph87%30.21 "HgN/A
9:50 AM32 °FScattered clouds.2 mph87%30.21 "HgN/A
9:20 AM30 °FScattered clouds.2 mph93%30.21 "HgN/A
8:50 AM28 °FScattered clouds.1 mph93%30.21 "Hg4 mi
7:50 AM27 °FPartly sunny.2 mph93%30.21 "Hg4 mi
7:20 AM27 °FPassing clouds.2 mph93%30.18 "Hg4 mi
6:50 AM27 °FPassing clouds.2 mph93%30.18 "Hg4 mi
5:50 AM27 °FPassing clouds.2 mph93%30.18 "Hg6 mi
5:20 AM27 °FPassing clouds.1 mph93%30.18 "Hg5 mi
4:50 AM27 °FPassing clouds.5 mph93%30.15 "Hg6 mi
4:20 AM27 °FPartly cloudy.2 mph100%30.15 "Hg4 mi
3:50 AM27 °FPassing clouds.1 mph100%30.15 "Hg6 mi
3:20 AM27 °FPassing clouds.2 mph100%30.15 "Hg6 mi
2:50 AM27 °FOvercast.1 mph100%30.15 "Hg5 mi
2:20 AM27 °FPassing clouds.3 mph100%30.15 "Hg5 mi
1:50 AM27 °FSnow. Overcast.6 mph100%30.15 "Hg3 mi
1:20 AM27 °FLight freezing rain. Passing clouds.3 mph100%30.12 "Hg3 mi
Weather by CustomWeather, © 2015

See weather overviewHow to use our weather pages